To NAV CANADA Home Page Login to a new session Search on AWWS site Feedback and Comments Disclaimer Vers la page française équivalente Tips FAQ What's new on the site To the Forecasts and Observations / NOTAM section To "File a Flight Plan" website Publications and other links Update of the User's profile FIC Telephone Numbers My Weather Data Folder Route Weather Data Regional Weather Data Local Weather Data To the Forecasts and Observations / NOTAM section
Request Generated 04/30/2017 at 05:01:39 UTC . Weather information available at that time is displayed.

METAR/TAF

DAWSON CITY/YT    

LWIS CYDA 300400Z AUTO VRB05KT 05/04 A2985=
LWIS CYDA 300300Z AUTO 19003KT 06/05 A2985=
LWIS CYDA 300200Z AUTO VRB02KT 07/04 A2985=

*** REMARK        : Forecast period has ended; this was the last TAF issued
*** REMARQUE : La période de prévision est échue; ceci était le dernier TAF qui a été émis
TAF CYDA 291738Z 2918/2923 VRB03KT P6SM BKN050 OVC070 TEMPO 2918/2923
P6SM -SHRA FEW015 OVC050
RMK NXT FCST WILL BE ISSUED AT 301545Z=
Your time UTC time
Weather data provided by Environment Canada and NAV CANADA